EW3857 Weather Reports


Display with metric or nautical units.
time (UTC)temp
F
wind
direction
speed
MPH
gust
MPH
rain 1hr
in
rain 24hr
in
rain mn
in
humidity
%
barometer
mb
20260902182423 92 166 0.0 0.0 0.00 0.00 0.00 63 1020.8
20260902181919 92 168 0.0 0.0 0.00 0.00 0.00 66 1021.0
20260902181415 92 127 0.0 0.0 0.00 0.00 0.00 66 1020.9
20260902180909 91 118 0.0 0.0 0.00 0.00 0.00 63 1021.1
20260902180404 91 122 0.0 0.0 0.00 0.00 0.00 69 1020.9
20260902175900 91 147 0.0 0.0 0.00 0.00 0.00 67 1021.2
20260902175354 91 121 0.0 0.0 0.00 0.00 0.00 67 1021.2
20260902174849 91 129 0.0 0.0 0.00 0.00 0.00 66 1021.3
20260902174347 90 123 0.0 0.0 0.00 0.00 0.00 70 1021.1
20260902173837 90 114 0.0 0.0 0.00 0.00 0.00 68 1021.2
20260902173336 90 113 0.0 0.0 0.00 0.00 0.00 70 1021.6
20260902172831 90 119 0.0 0.0 0.00 0.00 0.00 71 1021.5
20260902172331 90 127 0.0 0.0 0.00 0.00 0.00 70 1021.7
20260902171825 90 120 0.0 0.0 0.00 0.00 0.00 71 1021.9
20260902171320 90 119 0.0 0.0 0.00 0.00 0.00 71 1021.7
20260902170812 90 158 0.0 0.0 0.00 0.00 0.00 72 1021.7
20260902170306 90 168 0.0 0.0 0.00 0.00 0.00 72 1022.1
20260902165801 90 162 0.0 0.0 0.00 0.00 0.00 71 1021.9
20260902165256 90 142 0.0 0.0 0.00 0.00 0.00 71 1022.3
20260902164750 90 167 0.0 0.0 0.00 0.00 0.00 71 1022.2
20260902164245 90 164 0.0 0.0 0.00 0.00 0.00 70 1022.2
20260902163739 90 166 0.0 0.0 0.00 0.00 0.00 70 1022.4
20260902163238 90 167 0.0 0.0 0.00 0.00 0.00 69 1022.3
20260902162732 89 169 0.0 0.0 0.00 0.00 0.00 68 1022.4
20260902162227 89 167 0.0 0.0 0.00 0.00 0.00 69 1022.7
20260902161722 89 164 0.0 0.0 0.00 0.00 0.00 68 1022.6
20260902161218 88 168 0.0 0.0 0.00 0.00 0.00 68 1022.7
20260902160714 87 125 0.0 0.0 0.00 0.00 0.00 69 1022.5
20260902160208 87 114 0.0 0.0 0.00 0.00 0.00 71 1022.4
20260902155706 88 134 0.0 0.0 0.00 0.00 0.00 68 1022.5
20260902155205 87 166 0.0 0.0 0.00 0.00 0.00 68 1022.8
20260902154701 87 142 0.0 0.0 0.00 0.00 0.00 69 1022.5
20260902154200 86 167 0.0 0.0 0.00 0.00 0.00 73 1022.6
20260902153655 86 134 0.0 0.0 0.00 0.00 0.00 74 1022.6
20260902153155 85 124 0.0 0.0 0.00 0.00 0.00 74 1022.8
20260902152651 85 165 0.0 0.0 0.00 0.00 0.00 74 1022.8
20260902152146 84 164 0.0 0.0 0.00 0.00 0.00 75 1022.6
20260902151642 84 170 0.0 0.0 0.00 0.00 0.00 79 1022.7
20260902151137 83 125 0.0 0.0 0.00 0.00 0.00 78 1022.5
20260902150632 83 127 0.0 0.0 0.00 0.00 0.00 83 1022.7
20260902150127 82 159 0.0 0.0 0.00 0.00 0.00 84 1022.6
20260902145622 82 138 0.0 0.0 0.00 0.00 0.00 85 1022.5
20260902145121 82 126 0.0 0.0 0.00 0.00 0.00 86 1022.6
20260902144618 82 135 0.0 0.0 0.00 0.00 0.00 88 1022.2
20260902144113 82 109 0.0 0.0 0.00 0.00 0.00 88 1022.4
20260902143607 82 120 0.0 0.0 0.00 0.00 0.00 88 1022.5
20260902143102 81 136 0.0 0.0 0.00 0.00 0.00 89 1022.4
20260902142558 81 118 0.0 0.0 0.00 0.00 0.00 89 1022.3
20260902142053 81 160 0.0 0.0 0.00 0.00 0.00 90 1022.5
20260902141548 81 95 0.0 0.0 0.00 0.00 0.00 90 1022.4
20260902141043 81 90 0.0 0.0 0.00 0.00 0.00 91 1022.5
20260902140538 80 109 0.0 0.0 0.00 0.00 0.00 92 1022.4
20260902140034 80 102 0.0 0.0 0.00 0.00 0.00 92 1022.5
20260902135533 80 86 0.0 0.0 0.00 0.00 0.00 92 1022.3
20260902135028 80 93 0.0 0.0 0.00 0.00 0.00 92 1022.4
20260902134523 80 79 0.0 0.0 0.00 0.00 0.00 91 1022.3
20260902134018 80 160 0.0 0.0 0.00 0.00 0.00 91 1022.6
20260902133513 80 149 0.0 0.0 0.00 0.00 0.00 92 1022.6
20260902133013 80 147 0.0 0.0 0.00 0.00 0.00 93 1022.7
20260902132508 80 151 0.0 0.0 0.00 0.00 0.00 92 1022.5
20260902132003 79 139 0.0 0.0 0.00 0.00 0.00 93 1022.3
20260902131459 79 145 0.0 0.0 0.00 0.00 0.00 93 1022.4
20260902130958 79 140 0.0 0.0 0.00 0.00 0.00 93 1022.4
20260902130454 79 199 0.0 0.0 0.00 0.00 0.00 93 1022.6
20260902125949 79 154 0.0 0.0 0.00 0.00 0.00 93 1022.5
20260902125446 79 143 0.0 0.0 0.00 0.00 0.00 94 1022.2
20260902124941 78 162 0.0 0.0 0.00 0.00 0.00 94 1022.3
20260902124437 78 151 0.0 0.0 0.00 0.00 0.00 95 1022.1
20260902123932 78 189 0.0 0.0 0.00 0.00 0.00 95 1022.2
20260902123429 78 182 0.0 0.0 0.00 0.00 0.00 96 1022.2
20260902122926 77 178 0.0 0.0 0.00 0.00 0.00 97 1022.4
20260902122423 77 190 0.0 0.0 0.00 0.00 0.00 97 1022.1
20260902121918 77 184 0.0 0.0 0.00 0.00 0.00 98 1022.1
20260902121413 76 186 0.0 0.0 0.00 0.00 0.00 98 1022.0
20260902120908 76 182 0.0 0.0 0.00 0.00 0.00 99 1022.1
20260902120404 76 191 0.0 0.0 0.00 0.00 0.00 99 1022.0
20260902115904 76 184 0.0 0.0 0.00 0.00 0.00 99 1022.0
20260902115400 75 187 0.0 0.0 0.00 0.00 0.00 99 1021.8
20260902114856 75 190 0.0 0.0 0.00 0.00 0.00 99 1021.8
20260902114351 75 187 0.0 0.0 0.00 0.00 0.00 99 1021.9
20260902113846 75 192 0.0 0.0 0.00 0.00 0.00 99 1022.0
20260902113342 75 189 0.0 0.0 0.00 0.00 0.00 99 1021.9
20260902112841 75 191 0.0 0.0 0.00 0.00 0.00 99 1021.9
20260902112338 75 187 0.0 0.0 0.00 0.00 0.00 99 1021.6
20260902111833 75 189 0.0 0.0 0.00 0.00 0.00 99 1021.7
20260902111329 75 186 0.0 0.0 0.00 0.00 0.00 99 1021.4
20260902110824 75 184 0.0 0.0 0.00 0.00 0.00 99 1021.3
20260902110320 75 185 0.0 0.0 0.00 0.00 0.00 99 1021.4
20260902105820 75 189 0.0 0.0 0.00 0.00 0.00 99 1021.5
20260902105315 75 186 0.0 0.0 0.00 0.00 0.00 99 1021.4
20260902104810 75 179 0.0 0.0 0.00 0.00 0.00 99 1021.4
20260902104306 75 185 0.0 0.0 0.00 0.00 0.00 99 1021.1
20260902103806 75 186 0.0 0.0 0.00 0.00 0.00 99 1021.1
20260902103301 75 184 0.0 0.0 0.00 0.00 0.00 99 1021.3
20260902102756 75 181 0.0 0.0 0.00 0.00 0.00 99 1021.2
20260902102254 75 184 0.0 0.0 0.00 0.00 0.00 99 1021.2
20260902101749 75 181 0.0 0.0 0.00 0.00 0.00 99 1021.2
20260902101244 75 187 0.0 0.0 0.00 0.00 0.00 99 1021.1
20260902100743 75 179 0.0 0.0 0.00 0.00 0.00 99 1021.1
20260902100237 75 180 0.0 0.0 0.00 0.00 0.00 99 1021.1
20260902095732 76 179 0.0 0.0 0.00 0.00 0.00 99 1020.9
20260902095231 76 177 0.0 0.0 0.00 0.00 0.00 99 1021.1
20260902094721 75 178 0.0 0.0 0.00 0.00 0.00 99 1020.8
20260902094217 75 178 0.0 0.0 0.00 0.00 0.00 99 1020.9
20260902093710 75 177 0.0 0.0 0.00 0.00 0.00 99 1020.6
20260902093206 75 181 0.0 0.0 0.00 0.00 0.00 99 1020.7
20260902092700 75 178 0.0 0.0 0.00 0.00 0.00 99 1020.8
20260902092155 75 178 0.0 0.0 0.00 0.00 0.00 99 1020.6
20260902091654 75 178 0.0 0.0 0.00 0.00 0.00 99 1020.7
20260902091151 75 178 0.0 0.0 0.00 0.00 0.00 99 1020.5
20260902090647 75 182 0.0 0.0 0.00 0.00 0.00 99 1020.6
20260902090146 75 176 0.0 0.0 0.00 0.00 0.00 99 1020.4
20260902085642 75 177 0.0 0.0 0.00 0.00 0.00 99 1020.5
20260902085141 75 176 0.0 0.0 0.00 0.00 0.00 99 1020.4
20260902084638 75 176 0.0 0.0 0.00 0.00 0.00 99 1020.4
20260902084134 75 176 0.0 0.0 0.00 0.00 0.00 99 1020.3
20260902083628 75 176 0.0 0.0 0.00 0.00 0.00 99 1020.2
20260902083127 75 176 0.0 0.0 0.00 0.00 0.00 99 1020.3
20260902082623 75 175 0.0 0.0 0.00 0.00 0.00 99 1020.0
20260902082120 75 176 0.0 0.0 0.00 0.00 0.00 99 1020.4
20260902081616 75 176 0.0 0.0 0.00 0.00 0.00 99 1020.1
20260902081111 75 176 0.0 0.0 0.00 0.00 0.00 99 1020.3
20260902080606 75 176 0.0 0.0 0.00 0.00 0.00 99 1020.3
20260902075602 75 176 0.0 0.0 0.00 0.00 0.00 99 1020.1
20260902075058 75 176 0.0 0.0 0.00 0.00 0.00 99 1020.2
20260902074553 75 175 0.0 0.0 0.00 0.00 0.00 99 1019.8
20260902074048 75 176 0.0 0.0 0.00 0.00 0.00 99 1020.0
20260902073544 75 177 0.0 0.0 0.00 0.00 0.00 99 1019.9
20260902073040 75 176 0.0 0.0 0.00 0.00 0.00 99 1020.1
20260902072535 75 177 0.0 0.0 0.00 0.00 0.00 99 1020.1
20260902072032 75 177 0.0 0.0 0.00 0.00 0.00 99 1020.1
20260902071531 75 176 0.0 0.0 0.00 0.00 0.00 99 1020.1
20260902071028 75 176 0.0 0.0 0.00 0.00 0.00 99 1020.1
20260902070523 75 175 0.0 0.0 0.00 0.00 0.00 99 1020.3
20260902070017 75 176 0.0 0.0 0.00 0.00 0.00 99 1020.4
20260902065511 75 175 0.0 0.0 0.00 0.00 0.00 99 1020.5
20260902065007 76 177 0.0 0.0 0.00 0.00 0.00 99 1020.4
20260902064502 75 176 0.0 0.0 0.00 0.00 0.00 99 1020.2
20260902063958 76 175 0.0 0.0 0.00 0.00 0.00 98 1020.4
20260902063457 76 176 0.0 0.0 0.00 0.00 0.00 98 1020.2
20260902062953 76 177 0.0 0.0 0.00 0.00 0.00 98 1020.4
20260902062451 76 178 0.0 0.0 0.00 0.00 0.00 98 1020.3
20260902061947 76 176 0.0 0.0 0.00 0.00 0.00 98 1020.4
20260902061442 75 176 0.0 0.0 0.00 0.00 0.00 98 1020.4
20260902060938 76 177 0.0 0.0 0.00 0.00 0.00 98 1020.4
20260902060434 75 176 0.0 0.0 0.00 0.00 0.00 98 1020.5
20260902055930 76 175 0.0 0.0 0.00 0.00 0.00 98 1020.6
20260902055425 75 175 0.0 0.0 0.00 0.00 0.00 98 1020.6
20260902054920 75 176 0.0 0.0 0.00 0.00 0.00 98 1020.4
20260902054415 75 176 0.0 0.0 0.00 0.00 0.00 98 1020.2
20260902053911 75 175 0.0 0.0 0.00 0.00 0.00 97 1020.3
20260902053406 76 177 0.0 0.0 0.00 0.00 0.00 97 1020.2
20260902052905 76 175 0.0 0.0 0.00 0.00 0.00 97 1020.3
20260902052400 76 175 0.0 0.0 0.00 0.00 0.00 97 1020.4
20260902051855 76 175 0.0 0.0 0.00 0.00 0.00 97 1020.4
20260902051355 76 176 0.0 0.0 0.00 0.00 0.00 97 1020.6
20260902050849 75 176 0.0 0.0 0.00 0.00 0.00 97 1020.5
20260902050348 76 174 0.0 0.0 0.00 0.00 0.00 96 1020.4
20260902045844 76 175 0.0 0.0 0.00 0.00 0.00 96 1020.5
20260902045340 76 175 0.0 0.0 0.00 0.00 0.00 96 1020.3
20260902044837 76 175 0.0 0.0 0.00 0.00 0.00 96 1020.4
20260902044332 76 175 0.0 0.0 0.00 0.00 0.00 95 1020.4
20260902043832 76 175 0.0 0.0 0.00 0.00 0.00 95 1020.5
20260902043327 76 176 0.0 0.0 0.00 0.00 0.00 95 1020.4
20260902042827 76 175 0.0 0.0 0.00 0.00 0.00 95 1020.7
20260902042321 76 175 0.0 0.0 0.00 0.00 0.00 94 1020.7
20260902041817 76 176 0.0 0.0 0.00 0.00 0.00 94 1020.7
20260902041316 76 176 0.0 0.0 0.00 0.00 0.00 94 1020.6
20260902040815 76 175 0.0 0.0 0.00 0.00 0.00 94 1020.7
20260902040311 76 177 0.0 0.0 0.00 0.00 0.00 94 1020.9
20260902035810 76 177 0.0 0.0 0.00 0.00 0.00 93 1020.7
20260902035306 76 179 0.0 0.0 0.00 0.00 0.00 93 1020.5
20260902034804 76 176 0.0 0.0 0.00 0.00 0.00 93 1020.8
20260902034300 76 175 0.0 0.0 0.00 0.00 0.00 92 1020.8
20260902033757 76 175 0.0 0.0 0.00 0.00 0.00 92 1020.7
20260902033253 76 174 0.0 0.0 0.00 0.00 0.00 92 1020.6
20260902032751 76 176 0.0 0.0 0.00 0.00 0.00 91 1020.6
20260902032247 76 175 0.0 0.0 0.00 0.00 0.00 91 1020.6
20260902031746 76 175 0.0 0.0 0.00 0.00 0.00 91 1020.8
20260902031242 76 174 0.0 0.0 0.00 0.00 0.00 91 1020.7
20260902030737 76 175 0.0 0.0 0.00 0.00 0.00 90 1020.7
20260902030232 76 174 0.0 0.0 0.00 0.00 0.00 90 1020.7
20260902025731 76 176 0.0 0.0 0.00 0.00 0.00 90 1020.7
20260902025226 76 176 0.0 0.0 0.00 0.00 0.00 90 1020.7
20260902024721 77 175 0.0 0.0 0.00 0.00 0.00 89 1020.4
20260902024216 77 174 0.0 0.0 0.00 0.00 0.00 89 1020.7
20260902023712 77 174 0.0 0.0 0.00 0.00 0.00 89 1020.6
20260902023207 77 175 0.0 0.0 0.00 0.00 0.00 89 1020.7
20260902022706 77 176 0.0 0.0 0.00 0.00 0.00 89 1020.4
20260902022202 77 177 0.0 0.0 0.00 0.00 0.00 88 1020.5
20260902021657 77 176 0.0 0.0 0.00 0.00 0.00 88 1020.4
20260902021152 77 176 0.0 0.0 0.00 0.00 0.00 87 1020.3
20260902020648 77 175 0.0 0.0 0.00 0.00 0.00 87 1020.3
20260902020144 78 176 0.0 0.0 0.00 0.00 0.00 87 1020.4
20260902015639 78 176 0.0 0.0 0.00 0.00 0.00 87 1020.4
20260902015136 78 177 0.0 0.0 0.00 0.00 0.00 86 1020.4
20260902014631 78 178 0.0 0.0 0.00 0.00 0.00 87 1020.1
20260902014127 78 176 0.0 0.0 0.00 0.00 0.00 86 1020.3
20260902013626 78 176 0.0 0.0 0.00 0.00 0.00 86 1020.2
20260902013122 78 176 0.0 0.0 0.00 0.00 0.00 86 1020.0
20260902012617 78 176 0.0 0.0 0.00 0.00 0.00 86 1020.2
20260902012112 79 176 0.0 0.0 0.00 0.00 0.00 86 1019.9
20260902011607 79 175 0.0 0.0 0.00 0.00 0.00 86 1019.9
20260902011106 79 176 0.0 0.0 0.00 0.00 0.00 85 1019.8
20260902010601 79 176 0.0 0.0 0.00 0.00 0.00 85 1019.7
20260902010057 79 175 0.0 0.0 0.00 0.00 0.00 85 1019.9
20260902005554 79 174 0.0 0.0 0.00 0.00 0.00 85 1019.9
20260902005051 79 179 0.0 0.0 0.00 0.00 0.00 86 1019.9
20260902004550 80 178 0.0 0.0 0.00 0.00 0.00 86 1019.8
20260902004045 80 178 0.0 0.0 0.00 0.00 0.00 85 1019.7
20260902003541 81 178 0.0 0.0 0.00 0.00 0.00 82 1019.7
20260902003036 81 179 0.0 0.0 0.00 0.00 0.00 80 1019.7
20260902002532 81 179 0.0 0.0 0.00 0.00 0.00 79 1019.6
20260902002027 82 181 0.0 0.0 0.00 0.00 0.00 78 1020.0
20260902001521 82 181 0.0 0.0 0.00 0.00 0.00 77 1019.7
20260902001016 82 181 0.0 0.0 0.00 0.00 0.00 77 1019.9
20260902000511 82 180 0.0 0.0 0.00 0.00 0.00 77 1019.7
20260902000006 83 186 0.0 0.0 0.00 0.00 0.00 78 1019.8
20260901235501 83 179 0.0 0.0 0.00 0.00 0.00 78 1019.8
20260901234955 84 179 0.0 0.0 0.00 0.00 0.00 77 1020.0
20260901234449 84 179 0.0 0.0 0.00 0.00 0.00 77 1019.9
20260901233944 85 180 0.0 0.0 0.00 0.00 0.00 76 1020.0
20260901233444 85 179 0.0 0.0 0.00 0.00 0.00 76 1020.0
20260901232941 86 182 0.0 0.0 0.00 0.00 0.00 75 1020.0
20260901232436 87 181 0.0 0.0 0.00 0.00 0.00 75 1020.1
20260901231931 87 180 0.0 0.0 0.00 0.00 0.00 73 1020.0
20260901231428 87 180 0.0 0.0 0.00 0.00 0.00 73 1020.1
20260901230925 88 179 0.0 0.0 0.00 0.00 0.00 74 1020.0
20260901230423 88 179 0.0 0.0 0.00 0.00 0.00 73 1020.1
20260901225918 89 178 0.0 0.0 0.00 0.00 0.00 76 1019.8
20260901225413 89 178 0.0 0.0 0.00 0.00 0.00 74 1019.6
20260901224908 89 177 0.0 0.0 0.00 0.00 0.00 72 1019.7
20260901224404 90 177 0.0 0.0 0.00 0.00 0.00 71 1019.6
20260901223900 90 178 0.0 0.0 0.00 0.00 0.00 70 1019.6
20260901223355 91 178 0.0 0.0 0.00 0.00 0.00 63 1019.8
20260901222851 91 177 0.0 0.0 0.00 0.00 0.00 56 1019.6
20260901222347 91 178 0.0 0.0 0.00 0.00 0.00 56 1019.6
20260901221843 91 177 0.0 0.0 0.00 0.00 0.00 53 1019.7
20260901221338 91 177 0.0 0.0 0.00 0.00 0.00 49 1019.5
20260901220838 91 173 0.0 0.0 0.00 0.00 0.00 49 1019.9
20260901220337 92 175 0.0 0.0 0.00 0.00 0.00 50 1019.7
20260901215836 92 176 0.0 0.0 0.00 0.00 0.00 49 1019.7
20260901215335 92 177 0.0 0.0 0.00 0.00 0.00 49 1019.8
20260901214834 92 177 0.0 0.0 0.00 0.00 0.00 49 1019.7
20260901214333 93 177 0.0 0.0 0.00 0.00 0.00 48 1019.7
20260901213827 92 178 0.0 0.0 0.00 0.00 0.00 46 1019.7
20260901213327 92 172 0.0 0.0 0.00 0.00 0.00 44 1019.5
20260901212822 92 167 0.0 0.0 0.00 0.00 0.00 49 1020.0
20260901212318 92 178 0.0 0.0 0.00 0.00 0.00 49 1019.8
20260901211814 93 168 0.0 0.0 0.00 0.00 0.00 49 1020.0
20260901211310 93 175 0.0 0.0 0.00 0.00 0.00 49 1019.9
20260901210805 94 176 0.0 0.0 0.00 0.00 0.00 47 1020.1
20260901210301 95 176 0.0 0.0 0.00 0.00 0.00 48 1020.0
20260901205757 95 178 0.0 0.0 0.00 0.00 0.00 47 1020.3
20260901205256 94 178 0.0 0.0 0.00 0.00 0.00 46 1020.2
20260901204751 94 176 0.0 0.0 0.00 0.00 0.00 47 1020.3
20260901204242 95 176 0.0 0.0 0.00 0.00 0.00 46 1020.0
20260901203736 94 178 0.0 0.0 0.00 0.00 0.00 47 1020.4
20260901203231 93 177 0.0 0.0 0.00 0.00 0.00 54 1020.4
20260901202730 93 176 0.0 0.0 0.00 0.00 0.00 52 1020.4
20260901202226 95 177 0.0 0.0 0.00 0.00 0.00 50 1020.6
20260901201721 95 179 0.0 0.0 0.00 0.00 0.00 54 1020.5
20260901201220 94 178 0.0 0.0 0.00 0.00 0.00 53 1020.5
20260901200720 93 178 0.0 0.0 0.00 0.00 0.00 54 1020.7
20260901200215 93 177 0.0 0.0 0.00 0.00 0.00 55 1020.7
20260901195708 93 174 0.0 0.0 0.00 0.00 0.00 55 1020.8
20260901195202 92 175 0.0 0.0 0.00 0.00 0.00 57 1020.8
20260901194658 93 172 0.0 0.0 0.00 0.00 0.00 60 1020.7
20260901194152 93 177 0.0 0.0 0.00 0.00 0.00 57 1020.9
20260901193648 93 176 0.0 0.0 0.00 0.00 0.00 59 1020.8
20260901193142 92 176 0.0 0.0 0.00 0.00 0.00 58 1021.1
20260901192637 92 174 0.0 0.0 0.00 0.00 0.00 56 1021.2
20260901192132 91 176 0.0 0.0 0.00 0.00 0.00 57 1021.1
20260901191628 91 172 0.0 0.0 0.00 0.00 0.00 57 1021.1
20260901191124 92 171 0.0 0.0 0.00 0.00 0.00 58 1021.2
20260901190620 92 174 0.0 0.0 0.00 0.00 0.00 55 1021.3
20260901190119 92 171 0.0 0.0 0.00 0.00 0.00 56 1021.3
20260901185618 92 177 0.0 0.0 0.00 0.00 0.00 57 1021.4
20260901185116 92 175 0.0 0.0 0.00 0.00 0.00 55 1021.4
20260901184612 91 175 0.0 0.0 0.00 0.00 0.00 56 1021.6
20260901184107 91 176 0.0 0.0 0.00 0.00 0.00 60 1021.6
20260901183602 91 174 0.0 0.0 0.00 0.00 0.00 62 1021.7
20260901183058 91 173 0.0 0.0 0.00 0.00 0.00 62 1021.5